Tracking 28126 objects as of 2-Oct-2023
HD Live streaming from Space Station
objects crossing your sky now

STARLINK-2534

Track STARLINK-2534 now!
10-day predictions
STARLINK-2534 is classified as:


NORAD ID: 48311
Int'l Code: 2021-036AM
Perigee: 553.4 km
Apogee: 555.1 km
Inclination: 53.1 °
Period: 95.6 minutes
Semi major axis: 6925 km
RCS: Unknown
Launch date: April 29, 2021
Source: United States (US)
Launch site: AIR FORCE EASTERN TEST RANGE (AFETR)
Your satellite tracking list
Your tracking list is empty




NASA's NSSDC Master Catalog

Two Line Element Set (TLE):
1 48311U 21036AM  23274.84504406  .00024153  00000-0  16337-2 0  9995
2 48311  53.0528 126.2890 0001223  82.8131 277.2997 15.06424973134058
Source of the keplerian elements: AFSPC